Weather History for Dundee, United Kingdom

Change the Weather History Date:

Thursday, March 21, 2013

  Actual Average Record
Temperature  
Mean Temperature 36 °F -  
Max Temperature 39 °F 50 °F 59 °F (2009)
Min Temperature 32 °F 41 °F 28 °F (2007)
Degree Days  
Heating Degree Days 30    
Moisture  
Dew Point 31 °F    
Average Humidity 80    
Maximum Humidity 100    
Minimum Humidity 65    
Precipitation  
Precipitation 0.00 in - - ()
Sea Level Pressure  
Sea Level Pressure 30.10 in    
Wind  
Wind Speed 12 mph ()    
Max Wind Speed 22 mph    
Max Gust Speed 31 mph    
Visibility 6.1 miles    
Events Rain , Snow    
Averages and records for this station are not official NWS values.
T = Trace of Precipitation, MM = Missing Value Source: Averaged Metar Reports

Daily Weather History Graph

Daily Weather History Graph

Search for Another Location

Airport:

Trip Planner

Search our weather history database for the weather conditions in past years. The results will help you decide how hot, cold, wet, or windy it might be!

Date:

Astronomy

Mar. 21, 2013 Rise Set
Actual Time 6:11 AM GMT 6:28 PM GMT
Civil Twilight 5:33 AM GMT 7:05 PM GMT
Nautical Twilight 4:48 AM GMT 7:51 PM GMT
Astronomical Twilight 4:01 AM GMT 8:39 PM GMT
Moon 11:48 AM GMT (3/21) 3:21 AM GMT (3/21)
Length of Visible Light 13h 32m
Length of Day
12h 16m
Waxing Gibbous, 67% of the Moon is Illuminated
Mar 21
Waxing Gibbous
Mar 27
Full
Apr 3
Last Quarter
Apr 10
New
Apr 18
First Quarter

Hourly Weather History & Observations

Time (GMT) Temp. Windchill Dew Point Humidity Pressure Visibility Wind Dir Wind Speed Gust Speed Precip Events Conditions
7:50 AM 32.0 °F 28.7 °F 32.0 °F 100% 30.09 in 6.2 mi East 3.5 mph - N/A Snow Snow Showers
8:20 AM 33.8 °F 27.7 °F 32.0 °F 93% 30.12 in 5.0 mi East 6.9 mph - N/A   Mostly Cloudy
8:50 AM 35.6 °F 28.0 °F 32.0 °F 87% 30.12 in 5.0 mi East 10.4 mph - N/A Snow Light Snow Showers
9:20 AM 35.6 °F 28.6 °F 30.2 °F 81% 30.12 in 5.0 mi East 9.2 mph - N/A   Mostly Cloudy
9:50 AM 35.6 °F 27.1 °F 30.2 °F 81% 30.12 in 6.2 mi East 12.7 mph - N/A Snow Light Snow Showers
10:20 AM 37.4 °F 29.3 °F 28.4 °F 70% 30.12 in 6.2 mi East 12.7 mph - N/A   Mostly Cloudy
11:20 AM 37.4 °F 28.2 °F 28.4 °F 70% 30.12 in 6.2 mi ESE 16.1 mph - N/A   Scattered Clouds
11:50 AM 37.4 °F 28.2 °F 30.2 °F 75% 30.12 in 6.2 mi East 16.1 mph - N/A   Scattered Clouds
12:20 PM 37.4 °F 27.8 °F 30.2 °F 75% 30.12 in 6.2 mi East 17.3 mph - N/A   Scattered Clouds
12:50 PM 39.2 °F 29.6 °F 28.4 °F 65% 30.12 in 6.2 mi East 19.6 mph - N/A   Scattered Clouds
1:20 PM 39.2 °F 29.6 °F 28.4 °F 65% 30.12 in 6.2 mi East 19.6 mph - N/A   Scattered Clouds
1:50 PM 37.4 °F 27.2 °F 30.2 °F 75% 30.09 in 6.2 mi East 19.6 mph - N/A Rain , Snow Light Rain Showers
2:20 PM 37.4 °F 26.9 °F 30.2 °F 75% 30.12 in 6.2 mi East 20.7 mph - N/A   Mostly Cloudy
2:50 PM 37.4 °F 27.2 °F 30.2 °F 75% 30.12 in 6.2 mi ESE 19.6 mph - N/A   Mostly Cloudy
3:20 PM 35.6 °F 25.9 °F 32.0 °F 87% 30.09 in 6.2 mi East 16.1 mph - N/A Snow Light Snow Showers
3:50 PM 35.6 °F 26.2 °F 32.0 °F 87% 30.09 in 6.2 mi East 15.0 mph - N/A   Mostly Cloudy
4:20 PM 35.6 °F 25.2 °F 32.0 °F 87% 30.06 in 6.2 mi East 18.4 mph - N/A Snow Light Snow Showers
4:50 PM 35.6 °F 24.8 °F 30.2 °F 81% 30.09 in 6.2 mi East 19.6 mph - N/A   Mostly Cloudy
5:20 PM 37.4 °F 27.8 °F 30.2 °F 75% 30.09 in 6.2 mi East 17.3 mph - N/A   Mostly Cloudy
5:50 PM 35.6 °F 25.9 °F 32.0 °F 87% 30.09 in 6.2 mi East 16.1 mph - N/A   Mostly Cloudy
6:20 PM 37.4 °F 27.8 °F 28.4 °F 70% 30.09 in 6.2 mi East 17.3 mph - N/A   Mostly Cloudy
6:50 PM 35.6 °F 25.9 °F 30.2 °F 81% 30.09 in 6.2 mi East 16.1 mph - N/A   Mostly Cloudy
7:20 PM 37.4 °F 27.8 °F 32.0 °F 81% 30.09 in 6.2 mi ESE 17.3 mph - N/A   Mostly Cloudy
7:50 PM 37.4 °F 28.5 °F 32.0 °F 81% 30.09 in 6.2 mi East 15.0 mph - N/A   Mostly Cloudy
8:20 PM 35.6 °F 25.2 °F 32.0 °F 87% 30.09 in 6.2 mi East 18.4 mph - N/A Snow Light Snow Showers
8:50 PM 35.6 °F 25.2 °F 32.0 °F 87% 30.09 in 6.2 mi East 18.4 mph 31.1 mph N/A Snow Light Snow Showers
9:20 PM 37.4 °F 26.6 °F 32.0 °F 81% 30.09 in 6.2 mi East 21.9 mph - N/A   Mostly Cloudy
9:50 PM 37.4 °F 27.5 °F 30.2 °F 75% 30.09 in 6.2 mi East 18.4 mph - N/A Snow Light Snow Showers